Effective Sunday, March 17, 2024, the National Weather Service National Data Buoy Center will discontinue its Dial-A-Buoy Interactive Voice Response system. For more information, see Service Change Notice 24-06 (PDF).

Station 46092 - MBM1 Image indicating link to RSS feed of recent meteorological observations for station 46092


Conditions at 46092 as of
(7:01 am PST)
1501 GMT on 03/01/2024:
     

Click on the graph icon in the table below to see a time series plot of the last five days of that observation.

5-day plot - Wind Direction Wind Direction (WDIR):SSW ( 210 deg true )
5-day plot - Wind Speed Wind Speed (WSPD): 19.4 kts
5-day plot - Atmospheric Pressure Atmospheric Pressure (PRES):30.02 in
5-day plot - Pressure Tendency Pressure Tendency (PTDY):+0.01 in ( Rising )
5-day plot - Air Temperature Air Temperature (ATMP): 53.8 °F
5-day plot - Water Temperature Water Temperature (WTMP): 56.7 °F
5-day plot - Wind Speed at 10 Meters Wind Speed at 10 meters (WSPD10M): 21.4 kts
5-day plot - Wind Speed at 20 Meters Wind Speed at 20 meters (WSPD20M): 23.3 kts
5-day plot -  Wind Speed, Wind Gust and Atmospheric Pressure Combined plot of Wind Speed, Gust, and Air Pressure
Previous observations
TIME
(PST)
5-day plot - Wind Direction
WDIR
 
5-day plot - Wind Speed
WSPD
kts
5-day plot - Wind Gust
GST
kts
5-day plot - Wave Height
WVHT
ft
5-day plot - Dominant Wave Period
DPD
sec
5-day plot - Average Wave Period
APD
sec
5-day plot - Mean Wave Direction
MWD
 
5-day plot - Atmospheric Pressure
PRES
in
5-day plot - Pressure Tendency
PTDY
in
5-day plot - Air Temperature
ATMP
°F
5-day plot - Water Temperature
WTMP
°F
5-day plot - Dew Point
DEWP
°F
5-day plot - Salinity
SAL
psu
5-day plot - Visibility
VIS
nmi
5-day plot - Tide (above MLLW)
TIDE
ft
2024-03-01 06:01 amWSW 15.5-----30.03+0.02 51.6 56.7----
2024-03-01 05:01 amWSW 15.5-----30.01-0.03 54.3 56.7----
2024-03-01 04:01 am SW 15.5-----30.01-0.01 55.4 56.7----
2024-03-01 03:01 am SW 15.5-----30.02-0.04 55.2 56.7----
2024-03-01 02:01 am SW 11.7-----30.04-0.02 54.9 56.7----
2024-03-01 01:01 am SW 11.7-----30.02-0.04 53.6 56.7----
2024-03-01 12:01 amWSW 9.7-----30.06-0.01 54.7 56.7----
2024-02-29 11:01 pm SW 9.7-----30.06+0.00 53.8 56.7----
2024-02-29 10:01 pmWSW 9.7-----30.06+0.02 53.4 56.8----
2024-02-29 09:01 pm W 13.6-----30.06+0.03 53.2 56.8----
2024-02-29 08:01 pmWSW 17.5-----30.06+0.02 55.0 56.8----
2024-02-29 07:01 pm S 19.4-----30.04+0.00 55.6 56.8----
2024-02-29 06:01 pm S 21.4-----30.03-0.02 55.8 56.8----
2024-02-29 05:01 pm S 19.4-----30.03-0.02 55.6 56.8----
2024-02-29 04:01 pm S 27.2-----30.04-0.03 55.0 56.8----
2024-02-29 02:01 pm S 21.4-----30.06-0.04 55.0 56.8----
2024-02-29 01:01 pm S 27.2-----30.07-0.02 55.4 56.8----
2024-02-29 12:01 pm S 27.2-----30.09+0.00 55.8 56.8----
2024-02-29 11:01 am S 21.4-----30.10+0.01 55.2 56.8----
2024-02-29 10:01 am S 19.4-----30.09+0.01 54.7 56.8----
2024-02-29 09:01 amSSW 15.5-----30.09+0.00 53.6 56.8----
2024-02-29 08:01 am S 13.6-----30.09+0.00 54.9 56.8----